Palmer, AK

8:01 AM AKDT on April 19, 2018 (GMT -0800)
Palmer Municipal

Weather History for PAAQ - August, 2013

Change the Weather History Date:

Tuesday, August 20, 2013

  Actual Average Record
Temperature  
Mean Temperature 52 °F -  
Max Temperature 57 °F 63 °F 72 °F (1968)
Min Temperature 50 °F 46 °F 35 °F (1960)
Degree Days  
Heating Degree Days 12    
Growing Degree Days 2 (Base 50)    
Moisture  
Dew Point 49 °F    
Average Humidity 86    
Maximum Humidity 97    
Minimum Humidity 74    
Precipitation  
Precipitation 0.05 in - - ()
Sea Level Pressure  
Sea Level Pressure 29.82 in    
Wind  
Wind Speed 5 mph (ENE)    
Max Wind Speed 10 mph    
Max Gust Speed -    
Visibility 10 miles    
Events Rain    
Averages and records for this station are not official NWS values.
T = Trace of Precipitation, MM = Missing Value Source: NWS Daily Summary

Daily Weather History Graph

Daily Weather History Graph

Search for Another Location

Airport or City:

Astronomy

Aug. 20, 2013 Rise Set
Actual Time 6:17 AM AKDT 9:40 PM AKDT
Civil Twilight 5:24 AM AKDT 10:32 PM AKDT
Nautical Twilight 4:06 AM AKDT 11:48 PM AKDT
Astronomical Twilight 2:32 AM AKDT 1:27 AM AKDT
Moon 8:53 PM AKDT (8/20) 6:10 AM AKDT (8/20)
Length of Visible Light 17h 08m
Length of Day
15h 23m
Full, 100% of the Moon is Illuminated
Aug 20
Full
Aug 20
Full
Aug 28
Last Quarter
Sep 5
New
Sep 12
First Quarter

Hourly Weather History & Observations

Time (AKDT) Temp. Dew Point Humidity Pressure Visibility Wind Dir Wind Speed Gust Speed Precip Events Conditions
12:53 AM 53.1 °F 46.0 °F 77% 29.78 in 10.0 mi East 10.4 mph - 0.01 in   Overcast
1:53 AM 54.0 °F 46.0 °F 75% 29.78 in 10.0 mi East 8.1 mph - N/A   Overcast
2:53 AM 53.1 °F 45.0 °F 74% 29.78 in 10.0 mi East 10.4 mph - N/A   Overcast
3:53 AM 53.1 °F 46.0 °F 77% 29.78 in 10.0 mi East 5.8 mph - N/A   Overcast
4:53 AM 53.1 °F 46.0 °F 77% 29.79 in 10.0 mi East 4.6 mph - N/A   Overcast
5:53 AM 51.1 °F 48.0 °F 89% 29.79 in 10.0 mi Calm Calm - N/A   Overcast
6:53 AM 50.0 °F 48.9 °F 96% 29.81 in 10.0 mi Calm Calm - N/A   Mostly Cloudy
7:53 AM 50.0 °F 48.9 °F 96% 29.81 in 10.0 mi Calm Calm - N/A   Overcast
8:53 AM 51.1 °F 48.9 °F 92% 29.82 in 10.0 mi Calm Calm - N/A   Overcast
9:53 AM 52.0 °F 50.0 °F 93% 29.83 in 10.0 mi Calm Calm - 0.00 in   Overcast
10:53 AM 53.1 °F 48.9 °F 86% 29.83 in 10.0 mi Calm Calm - N/A   Overcast
11:53 AM 54.0 °F 48.9 °F 83% 29.85 in 10.0 mi Calm Calm - 0.00 in   Overcast
12:53 PM 55.0 °F 48.9 °F 80% 29.85 in 10.0 mi Calm Calm - 0.00 in   Overcast
1:53 PM 55.9 °F 48.9 °F 77% 29.84 in 10.0 mi Variable 4.6 mph - N/A   Overcast
2:53 PM 55.9 °F 48.9 °F 77% 29.85 in 10.0 mi Variable 3.5 mph - 0.00 in Rain Light Rain
3:53 PM 55.9 °F 50.0 °F 80% 29.84 in 10.0 mi North 3.5 mph - 0.02 in   Overcast
4:53 PM 55.0 °F 51.1 °F 86% 29.84 in 10.0 mi Calm Calm - N/A   Overcast
5:53 PM 55.9 °F 52.0 °F 87% 29.83 in 10.0 mi Variable 5.8 mph - N/A   Overcast
6:53 PM 55.9 °F 48.0 °F 75% 29.83 in 10.0 mi WNW 6.9 mph - N/A   Overcast
7:53 PM 55.0 °F 53.1 °F 93% 29.83 in 10.0 mi Calm Calm - 0.00 in Rain Light Rain
8:35 PM 55.4 °F 53.6 °F 94% 29.83 in 10.0 mi Calm Calm - 0.01 in Rain Light Rain
8:53 PM 54.0 °F 53.1 °F 97% 29.83 in 10.0 mi Calm Calm - 0.01 in Rain Light Rain
9:53 PM 54.0 °F 52.0 °F 93% 29.85 in 10.0 mi Calm Calm - 0.01 in Rain Light Rain
10:53 PM 53.1 °F 51.1 °F 93% 29.86 in 10.0 mi Calm Calm - 0.00 in   Overcast
11:53 PM 53.1 °F 51.1 °F 93% 29.86 in 10.0 mi North 4.6 mph - 0.00 in   Overcast